Regional Weather Roundup
Issued by NWS

Home | Current Version | Previous Version | Graphics & Text | Print | Product List | Glossary On
Versions: 1 2 3 4 5 6 7 8 9 10 11 12 13 14 15 16 17 18 19 20 21 22 23 24 25 26 27
000
ASUS45 KBOU 172010
RWRCO

WEATHER ROUNDUP FOR COLORADO
NATIONAL WEATHER SERVICE DENVER/BOULDER CO
100 PM MST WED JAN 17 2018

NOTE: "FAIR" INDICATES FEW OR NO CLOUDS BELOW 12000 FEET WITH NO
SIGNIFICANT WEATHER AND/OR OBSTRUCTIONS TO VISIBILITY.

COZ001>005-013-030-031-172100-
...NORTHWEST COLORADO...

CITY           SKY/WX    TMP DP  RH WIND       PRES   REMARKS
CRAIG          FAIR      30   9  41 S3        30.39F
HAYDEN         FAIR     N/A N/A N/A S3        30.39F
MEEKER         FAIR      37  14  38 SW3       30.36F
RABBIT EARS PA FAIR      27  18  69 CALM      30.36F
STEAMBOAT SPGS FAIR      21   7  53 CALM      30.37F
WALDEN         FAIR      30   5  34 NW5       30.36F WCI  25
$$

COZ006>008-011-172100-
...WEST CENTRAL VALLEYS...

CITY           SKY/WX    TMP DP  RH WIND       PRES   REMARKS
GRAND JUNCTION FAIR      40  11  30 CALM      30.41F
MONTROSE       FAIR      37  13  37 CALM      30.39F
EAGLE          FAIR      29   4  34 CALM      30.43F
RIFLE          FAIR      38  10  31 MISG      30.39F
DELTA          FAIR      40  11  30 SW5       30.39F
NUCLA          FAIR      41  10  28 W6        30.40F
$$

COZ017>023-064>068-172100-
...SOUTHWEST COLORADO...

CITY           SKY/WX    TMP DP  RH WIND       PRES   REMARKS
DURANGO        FAIR      38  19  46 VRB3      30.30F
CORTEZ         FAIR      40  21  46 S13       30.33F
PAGOSA SPRINGS FAIR      37  13  36 SW3       30.29F
TELLURIDE      FAIR      39   4  23 W6        30.33F
WOLF CREEK PAS FAIR      30 -13  15 N8G16     30.39F WCI  23
$$

COZ009-010-012-014-032>034-037-058>063-172100-
...CENTRAL COLORADO...

CITY           SKY/WX    TMP DP  RH WIND       PRES   REMARKS
ASPEN          FAIR      34   0  23 NW6       30.34F WCI  29
BUENA VISTA    FAIR      48   5  17 N12G21    30.27F
COPPER MTN     NOT AVBL
BERTHOUD PASS  FAIR      16   5  62 NW15      30.36F WCI   1
COTTONWOOD PAS   N/A     45   0  15 CALM      30.31F
GUNNISON       FAIR      28   7  41 CALM      30.39F
KREMMLING      FAIR      25   5  42 CALM      30.44F
LEADVILLE      FAIR      34   9  35 N10G22    30.31F WCI  26
MONARCH PASS   FAIR      27  -6  24 E5G10     30.46F WCI  21
SALIDA         FAIR      46  -3  12 CALM      30.35F
SUNLIGHT       FAIR      27  14  59 CALM      30.41F
WILKERSON PASS FAIR      32 -22   9 SE5       30.37F WCI  27
$$

COZ069>075-172100-
...SAN LUIS VALLEY/SANGRE DE CRISTO MOUNTAINS...

CITY           SKY/WX    TMP DP  RH WIND       PRES   REMARKS
ALAMOSA        FAIR      36   5  27 CALM      30.30F
DEL NORTE      FAIR      34   4  29 E3        30.31F
LA VETA PASS   FAIR      36   1  23 N13G18      N/A
SAGUACHE       FAIR      36  10  35 SE5       30.31F
$$

COZ035-036-038>040-172100-
...NORTHERN COLORADO FRONT RANGE...

CITY           SKY/WX    TMP DP  RH WIND       PRES   REMARKS
DENVER INTL AP FAIR      47   3  16 SE5       30.26F
DMNS CITY PARK NOT AVBL
AURORA         SUNNY     48   0  13 CALM      30.27F
FRONT RANGE AP SUNNY     48   5  17 NW3       30.27F
ERIE MUNI ARPT FAIR      50   0  12 SE5       30.32F
BOULDER MUN AP FAIR      50   7  17 CALM      30.25F
CENTENNIAL     FAIR      47   2  15 VRB3      30.27F
BROOMFIELD     SUNNY     48   0  13 SE5       30.28F
FORT COLLINS   FAIR      46  17  31 S9        30.25F
LONGMONT       FAIR      52   4  14 CALM      30.27F
$$

COZ041-046-047-076>085-087-088-172100-
...PIKES PEAK/PALMER DIVIDE AND SOUTHERN FOOTHILLS...

CITY           SKY/WX    TMP DP  RH WIND       PRES   REMARKS
COLO. SPRINGS  FAIR      55  -6   8 NE14      30.27F
A. F. ACADEMY  FAIR      50 -15   6 NE12      30.26F
SCHRIEVER AFB  FAIR      50  -6   9 NE14G20   30.26F
CHEYENNE MTN   FAIR      47  -9   9 N7        30.22F
ELLICOTT         N/A    N/A N/A N/A N15       30.25F
FALCON         FAIR      48  -6  10 N9G21     30.28F
FORT CARSON    FAIR      55 -15   5 NE10      30.24F
LIMON          FAIR      49   0  13 N18G28    30.26F
MONUMENT HILL  FAIR      43   1  17 N8G17     30.30F
CANON CITY     FAIR      55   1  11 E7        30.24F
WALSENBURG     FAIR      54  10  17 NE7       30.26S
TRINIDAD       FAIR      53   2  12 VRB3      30.24F
$$

COZ042>045-048>051-090-091-172100-
...NORTHEAST COLORADO...

CITY           SKY/WX    TMP DP  RH WIND       PRES   REMARKS
GREELEY ARPT   FAIR      42  18  37 SW7       30.27F
AKRON          FAIR      42  15  33 VRB6      30.25F
BURLINGTON     FAIR      48   5  17 N7        30.26F
WRAY           FAIR      50   3  14 W10       30.26F
YUMA           FAIR      45   5  19 NW8       30.25F
STERLING       FAIR      46  16  29 CALM      30.24F
HOLYOKE        FAIR      46  16  29 NW13      30.25F
FORT MORGAN    FAIR      46  10  23 W7        30.26F
$$

COZ086-089-092>099-172100-
...SOUTHEAST COLORADO...

CITY           SKY/WX    TMP DP  RH WIND       PRES   REMARKS
PUEBLO         FAIR      47  15  27 SE3       30.25F
LA JUNTA       FAIR      44  14  29 W6        30.26F
LAMAR          FAIR      43  14  31 W8        30.26F
SPRINGFIELD      N/A     48  11  22 E5        30.24F
$$




USA.gov is the U.S. government's official web portal to all federal, state and local government web resources and services.